Location: Unspecified
(0.0000°N, 0.0000°E)
Time: 09:29:46
(UTC+01:00)

Cosmos 1908 Rocket - Visible Passes

Search period start: 23 January 2017 00:00
Search period end: 02 February 2017 00:00
Orbit: 605 x 634 km, 82.5° (Epoch: 22 January)

Date Brightness Start Highest point End Pass type
(mag) Time Alt. Az. Time Alt. Az. Time Alt. Az.
28 Jan 6.1 21:23:33 10° S 21:24:01 13° S 21:24:01 13° S visible
29 Jan 6.2 21:41:18 10° SSW 21:42:05 15° SSW 21:42:05 15° SSW visible
30 Jan 5.6 20:22:17 10° SE 20:23:01 13° SE 20:23:01 13° SE visible
30 Jan 6.7 21:59:57 10° SW 22:00:13 11° SW 22:00:13 11° SW visible
31 Jan 4.5 20:38:32 10° SSE 20:41:14 30° SE 20:41:14 30° SE visible
01 Feb 3.6 20:55:41 10° S 20:59:34 70° SSW 20:59:34 70° SSW visible
